Overview Statistics Trail Chart Weather Telemetry Raw packets
 

This is the latest recevied weather packets stored in our database for station/object KA1JKB. If no packets are shown the sender has not sent any weather packets the latest 10 day(s).

<< 87 88 89 90 91 92 93 >>
Time Temp. Humidity Pressure Rain* Wind** Luminosity Snow
1787798484 16.67° C 99% 1009.8 hPa 0 mm - 0 W/m² -
1787798179 16.67° C 99% 1009.8 hPa 0 mm - 0 W/m² -
1787797878 17.22° C 99% 1009.6 hPa 0 mm - 0 W/m² -
1787797573 17.22° C 99% 1010 hPa 0 mm - 0 W/m² -
1787797273 17.22° C 99% 1009.8 hPa 0 mm - 0 W/m² -
1787796968 17.22° C 99% 1009.8 hPa 0 mm - 0 W/m² -
1787796668 17.22° C 99% 1010 hPa 0 mm - 0 W/m² -
1787796363 17.22° C 99% 1010 hPa 0 mm - 0 W/m² -
1787796059 17.78° C 99% 1009.7 hPa 0 mm - 0 W/m² -
1787795756 17.78° C 99% 1009.8 hPa 0 mm - 0 W/m² -
1787795451 18.33° C 99% 1009.6 hPa 0 mm - 0 W/m² -
1787795150 18.33° C 99% 1009.8 hPa 0 mm - 0 W/m² -
1787794849 18.89° C 99% 1009.7 hPa 0 mm - 0 W/m² -
1787794545 18.33° C 99% 1009.5 hPa 0 mm - 0 W/m² -
1787794241 18.33° C 99% 1009.6 hPa 0 mm - 0 W/m² -
1787793936 18.33° C 99% 1009.6 hPa 0 mm - 0 W/m² -
1787793632 17.78° C 99% 1009.5 hPa 0 mm - 0 W/m² -
1787793330 18.33° C 99% 1009.6 hPa 0 mm - 0 W/m² -
1787793027 18.33° C 99% 1009.5 hPa 0 mm - 0 W/m² -
1787792722 18.33° C 99% 1009.5 hPa 0 mm - 0 W/m² -
1787792421 18.33° C 99% 1009.4 hPa 0 mm - 0 W/m² -
1787792119 18.89° C 99% 1009.3 hPa 0 mm - 0 W/m² -
1787791817 18.89° C 99% 1009.3 hPa 0 mm - 0 W/m² -
1787791513 19.44° C 99% 1009.2 hPa 0 mm - 0 W/m² -
1787791208 19.44° C 98% 1009.4 hPa 0 mm - 0 W/m² -

* Rain latest hour (hover to see other rain measurements)
** Current wind speed in m/s (hover to see current wind gust speed)